Tracking 17630 objects as of 25-May-2016
HD Live streaming from Space Station
objects crossing your sky now

COSMOS 2416

Track COSMOS 2416 now!
10-day predictions
COSMOS 2416 is classified as:


NORAD ID: 28908
Int'l Code: 2005-048A
Perigee: 1,442.1 km
Apogee: 1,455.6 km
Inclination: 82.5 °
Period: 114.7 minutes
Semi major axis: 7819 km
RCS: 1.597 m2 (large)
Launch date: December 21, 2005
Source: Commonwealth of Independent States (former USSR) (CIS)
Launch site: PLESETSK MISSILE AND SPACE COMPLEX (PKMTR)
Your satellite tracking list
Your tracking list is empty





NASA's NSSDC Master Catalog

Two Line Element Set (TLE):
1 28908U 05048A   16144.96562100 +.00000009 +00000-0 -79112-5 0  9994
2 28908 082.4658 138.1795 0008614 093.3678 323.1102 12.55468364477577
Source of the keplerian elements: AFSPC

N2YO: 484